loading
|

STARLINK-31869, 60196

Orbit data source: Space-Track

STARLINK-31869, 60196 is a payload satellite owned by SpaceX/Seattle (US) in LEO that was launched on Wed, 03 Jul 2024 UTC via an FALCON 9 launch vehicle from the Air Force Eastern Test Range (AFETR). Payloads include a variety of satellites, spacecraft, and rockets equipped with specific instruments for various scientific and technological missions. These include communications satellites like Starlink; space stations such as the ISS; scientific satellites like the Hubble; Earth observation satellites from companies like Planet Labs, Umbra, and HawkEye 360; GPS; miniature CubeSats for education and research; and military/defense satellites.

Loading next visibility...
Loading greatness...
STARLINK-31869 details
Identifier
60196, 2024-124P
Orbit
LEO
Last TLE update7 hours ago
Origin
Flag of USSpaceX/Seattle (US)
ManufacturerSpaceX/Seattle
Mission statusOperational
MissionUnknown
Bus & MotorSTARLINK V2M, Unknown motor
Mass750 kg wet, ~700 kg dry
Launch date (UTC)
2024-07-03 (3 months ago)
Launch vehicle
FALCON 9
Launch site
Air Force Eastern Test Range (AFETR)
Object type
Payload
Rocket body
Debris
Radar Cross SectionLarge (>1 m²)

Expand to show TLE details & history

TLE from 7 hours ago
0 STARLINK-31869
1 60196U 24124P   24261.57778938  .00074748  00000-0  18561-2 0  9997
2 60196  53.1577 307.9939 0001572  88.2357 271.8827 15.39690251 11828
Epoch: 2024-09-17T13:52Z
Definitive object data (Epoch: 2024-09-17T13:52:01.002Z)
Latitude-0.00009°
Longitude102.99921°
Altitude447.893 km
Speed7.645 km/s
True Right ascension20h 31m 58s
True Declination0° 00' 00"
Sunlit
Object was in full shadow at TLE epoch
Predictive object data (real-time)
Latitude-19.29379°
Longitude-63.27841°
Altitude452.676 km
Speed7.641 km/s
Apparent Right ascension06h 25m 28s
Apparent Declination-45° 17' 50"
Sunlit
Object is in daylight
Predictive observer data (real-time)
Local Sidereal Time13:47:31
Azimuth239.572° WSW
Elevation-40.177°
Doppler factor1
Orbital elements
Apogee448.355 km
Perigee446.209 km
Semi-major axis6,825.419 km
Eccentricity0.0001572
Inclination53.1577°
RAAN307.9939°
Arg. of periapsis88.2357°
True anomaly271.8647°
Mean anomaly271.8827°
Eccentric anomaly271.8737°
Mean motion3.84901 °/min
BSTAR0.0018561
Period93.53 mins
No data available

STARLINK-31869 Visibility forecast

Observer location: 39.9160978°, -105.1181434

STARLINK-31869 is not visible in the next 10 days
Span
Click to sort rows by Start time (UTC) header in descending order
Start Az.
Max El. time (UTC)
Max El. Az.
Max El.
End time (UTC)
End Az.